Location: Northcutt
(34.7304°N, 84.4305°W)
Time: 05:11:56
(UTC+00:00)

Vanguard 2 - Pass Details

Date: 03 October 2022
Orbit: 553 x 2933 km, 32.9° (Epoch: 05 December)

Event Time Altitude Azimuth Distance (km) Brightness Sun altitude
Rises 21:04:00 0° 272° (W) 5,412 12.8 25.8°
Reaches altitude 10° 21:07:05 10° 271° (W) 4,674 12.8 25.3°
Maximum altitude 21:21:31 82° 187° (S) 2,789 10.8 22.6°
Drops below altitude 10° 21:39:40 10° 103° (ESE) 5,692 11.5 19.1°
Sets 21:43:52 0° 102° (ESE) 6,593 11.8 18.3°
